{"data":{"norad_id":64076,"epoch":"2026-05-25T00:14:46.328352Z","epoch_age_seconds":70042,"freshness":"FRESH","line1":"1 64076U 25107N   26145.01025843  .00123181  00000+0  94850-3 0  9993","line2":"2 64076  43.0011 357.9845 0001859 274.0327  86.0328 15.70859790 59308","mean_motion":15.7085979,"eccentricity":0.0001859,"inclination_deg":43.0011,"raan_deg":357.9845,"arg_perigee_deg":274.0327,"mean_anomaly_deg":86.0328,"bstar":0.0009485,"rev_number":5930,"period_min":91.66954359434,"perigee_km":355.18654105344,"apogee_km":357.69045622383,"semimajor_km":6734.5754986386,"source":"CELESTRAK","updated_at":"2026-05-25T13:38:20.260094Z"}}